{"data":{"norad_id":61756,"intl_designator":"2024-199X","name":"SITRO-AIS 42","alt_names":[],"object_type":"PAYLOAD","status":"ACTIVE","operator":null,"country":"CIS","launch_date":"2024-11-04","launch_site_code":"VOSTO","launch_vehicle":null,"mission":null,"orbit_class":"UNKNOWN","rcs_meters":null,"size_class":null,"mass_kg":null,"dimensions":null,"purposes":[],"wikipedia_slug":null,"has_3d_model":false,"image_url":null,"decayed_at":null,"tle_current":{"epoch":"2026-09-22T21:11:33.970848Z","epoch_age_seconds":94485,"freshness":"FRESH","line1":"1 61756U 24199X   26265.88303207  .00292528  34991-4  79762-3 0  9994","line2":"2 61756  97.2620 150.3760 0002912 133.3632 226.7887 15.94117256153202","mean_motion":15.94117256,"eccentricity":0.0002912,"inclination_deg":97.262,"raan_deg":150.376,"arg_perigee_deg":133.3632,"mean_anomaly_deg":226.7887,"bstar":0.00079762,"rev_number":15320,"period_min":90.332125480737,"perigee_km":288.83320704478,"apogee_km":292.71718150673,"semimajor_km":6668.9121942758,"source":"CELESTRAK","updated_at":"2026-09-23T09:00:21.028597Z"}}}